Погода в Ухте

Россия / Республика Коми     63°33′45″N   53°41′02″E
темп.,
°C
ветер,
м/с
пор.,
м/с
влажн.,
%
обл.,
%
осадки,
мм/ч
давл.,
гПа
погр.,
м
16 июня, ср
ср1600:00+13ю38597 0.0 1009156
03:00+13ю312570 0.0 1008343
06:00+18ю395120 0.0 1006403
09:00+24юз5104163 0.0 10042304
12:00+24юз694399 0.1 10032045
15:00+18зсз5957100 0.1 1003632
18:00+13з3878100 1.6 1004301
21:00+11з2790100 3.6 1005288
17 июня, чт
чт1700:00+8ссз397851 0.0 1008404
03:00+6с49725 0.0 1010713
06:00+9ссз355516 0.0 10121100
09:00+13ссз353895 0.0 10121565
12:00+15ссз3429100 0.0 10132178
15:00+17с352585 0.0 10142741
18:00+16ссз352812 0.0 10152593
21:00+11ссз3104225 0.0 1017321
18 июня, пт
пт1800:00+8сз26694 0.0 1020126
03:00+7з23719 0.0 102077
06:00+12зюз4751100 0.0 1019556
09:00+14з6946100 0.0 10182034
12:00+10юз41188100 1.4 10181434
15:00+10зюз51090100 2.1 1017910
18:00+11з368140 0.0 1016617
21:00+9зюз239510 0.0 101669
19 июня, сб
сб1900:00+8зюз1198100 0.0 101718
03:00+10ю2497100 0.1 1016117
06:00+11ююв2694100 0.2 1015233
09:00+12ю3994100 1.1 1012415
12:00+14ююз41388100 0.4 1010546
15:00+17юз298491 0.8 1009463
18:00+22з51059100 0.2 1008790
21:00+18зсз411721 0.3 1011561
20 июня, вс
вс2000:00+12ссз5107617 0.0 1016724
03:00+9с3781100 0.0 1019660
06:00+12с34584 0.0 1020812
09:00+17ссв224266 0.0 10201053
12:00+21ююз1233100 0.0 10191412
15:00+16вюв2253100 0.1 101852
18:00+18юв474539 0.0 1015612
21:00+14вюв2883100 1.0 1013219